Flag Weather past 2 weeks in Windsor, Ontario, Canada

Now
27 °F

Snow flurries. More clouds than sun.


Feels Like: 16 °F
Forecast: N/A
Wind: 12 mph from Southwest

Location: Windsor Weather Station

Current Time: Nov 28, 2014 at 5:06:33 PM

Latest Report: Nov 28, 2014 at 4:00 PM


Visibility: 7 mi

Pressure: 30.22 "Hg

Humidity: 69%

Dew point: 18 °F

Location of WindsorLocation

Historic Weather in Windsor — Graph

°F

Windsor temperature yesterday

Maximum temperature yesterday: 34 °F (at 12:00 PM)
Minimum temperature yesterday: 27 °F (at 8:00 AM)
Average temperature yesterday: 31 °F

Past Weeks' High & Low Weather Summary

 TemperatureHumidityPressure
High59 °F (Nov 24, 1:00 PM)100% (Nov 16, 7:50 PM)30.50 "Hg (Nov 16, 7:50 PM)
Low12 °F (Nov 18, 4:00 AM)50% (Nov 21, 12:00 PM)29.07 "Hg (Nov 24, 3:48 AM)
Average30 °F75%30.03 "Hg
* Reported Nov 13 4:00 PM — Nov 28 4:00 PM, Windsor, Weather by CustomWeather, © 2014

Note: Actual official high and low records may vary slightly from our data, if they occured in-between our weather recording intervals... More about our weather records

Advertising

Windsor weather history for previous 24 hours

 ConditionsComfort  
Time TempWeatherWind HumidityBarometerVisibility
4:00 PM
Nov 28
27 °FSnow flurries. More clouds than sun.12 mph69%30.22 "Hg7 mi
3:51 PM27 °FSnow flurries. Mostly cloudy.12 mph69%30.22 "Hg8 mi
3:00 PM27 °FCloudy.14 mph69%30.25 "Hg15 mi
2:00 PM27 °FBroken clouds.15 mph64%30.25 "Hg15 mi
1:00 PM27 °FPartly sunny.14 mph59%30.29 "Hg15 mi
12:00 PM25 °FBroken clouds.9 mph54%30.31 "Hg15 mi
11:00 AM23 °FBroken clouds.9 mph58%30.36 "Hg15 mi
10:00 AM21 °FPartly sunny.3 mph58%30.36 "Hg15 mi
9:00 AM21 °FPartly sunny.3 mph54%30.37 "Hg15 mi
8:00 AM19 °FPartly sunny.7 mph58%30.38 "Hg15 mi
7:00 AM19 °FPassing clouds.7 mph58%30.38 "Hg15 mi
6:00 AM18 °FPassing clouds.8 mph68%30.38 "Hg15 mi
5:00 AM19 °FPassing clouds.10 mph58%30.37 "Hg15 mi
4:00 AM21 °FPassing clouds.12 mph54%30.36 "Hg15 mi
3:00 AM23 °FPassing clouds.13 mph54%30.35 "Hg15 mi
2:00 AM23 °FPassing clouds.12 mph54%30.33 "Hg15 mi
1:00 AM23 °FPassing clouds.16 mph50%30.32 "Hg15 mi
12:00 AM25 °FPassing clouds.18 mph54%30.32 "Hg15 mi
11:00 PM
Nov 27
27 °FPassing clouds.16 mph64%30.31 "Hg15 mi
10:00 PM27 °FSnow flurries. Passing clouds.12 mph69%30.30 "Hg15 mi
9:00 PM27 °FPassing clouds.9 mph64%30.28 "Hg15 mi
8:00 PM27 °FPassing clouds.8 mph74%30.28 "Hg15 mi
7:00 PM30 °FSnow flurries. Overcast.10 mph69%30.25 "Hg15 mi
6:00 PM32 °FSnow flurries. Overcast.13 mph60%30.23 "Hg15 mi
5:51 PM32 °FSnow flurries. Overcast.13 mph60%30.22 "Hg15 mi
5:00 PM32 °FOvercast.13 mph64%30.21 "Hg15 mi
Weather by CustomWeather, © 2014

See weather overviewHow to use our weather pages